Location: Harbor Hills
(33.7803°N, 118.3148°W)
Time: 17:21:26
(UTC+00:00)

IRIDIUM 106 - Pass Details

Date: 05 August 2024
Orbit: 776 x 779 km, 86.4° (Epoch: 07 September)

Event Time Altitude Azimuth Distance (km) Brightness Sun altitude
Exits shadow 12:06:59 - 191° (S) 2,883 6.9 -12.4°
Reaches altitude 10° 12:08:26 10° 193° (SSW) 2,322 6.4 -12.1°
Maximum altitude 12:13:33 60° 273° (W) 888 4.4 -11.2°
Drops below altitude 10° 12:18:44 10° 354° (N) 2,336 7.1 -10.2°
Sets 12:21:07 0° 358° (N) 3,267 7.9 -9.8°
